Regional Weather Roundup
Issued by NWS Goodland, KS

Home | Current Version | Previous Version | Graphics & Text | Print | Product List | Glossary On
Versions: 1 2 3 4 5 6 7 8 9 10 11 12 13 14 15 16 17 18 19 20 21 22 23 24 25 26 27 28 29 30 31 32 33 34 35 36 37 38 39 40 41 42 43 44 45 46 47 48 49 50
000
ASUS43 KGLD 192059
RWRGLD

GOODLAND FORECAST AREA HOURLY WEATHER ROUNDUP
NATIONAL WEATHER SERVICE GOODLAND KS
200 PM MST FRI DEC 19 2014

...OFFICIAL OBSERVATIONS...

CITY           SKY/WX    TMP DP  RH WIND       PRES   REMARKS
GOODLAND KS    SUNNY     49  23  36 W7        30.05F
HILL CITY KS   SUNNY     52  26  36 W7        30.06F
IMPERIAL NEB   SUNNY     41  27  57 W10       30.02F
MCCOOK NEB     SUNNY     48  31  51 W7        30.03F
AKRON CO       SUNNY     37  27  67 SW9       30.02F
BURLINGTON CO  SUNNY     45  23  42 SW6       30.04F
LIMON CO       SUNNY     44  21  40 CALM      30.03F
$$

...UNOFFICIAL OBSERVATIONS...

CITY           SKY/WX    TMP DP  RH WIND       PRES   REMARKS
COLBY KS       SUNNY     50  30  46 W12       30.05F
GOVE KS          N/A     50  32  50 MISG        N/A
NORTON KS      SUNNY     48  25  40 S8        30.03F
SHARON SPRINGS   N/A     48  26  42 SW7         N/A
KIT CARSON CO    N/A     41  25  53 MISG        N/A
YUMA CO          N/A     41  28  59 SW5         N/A
$$



USA.gov is the U.S. government's official web portal to all federal, state and local government web resources and services.